Temp
61 61 61 62 62 62 62 62 62 61 61 61 61 61 61 61 60 54 51 61 60 66 64 58 57 56 56 55 57 56 47 45 51 50 55 58 57 61 61 61 60 62 62 61 56
62 61 62 62 61 61 62 62 62 61 61 61 61 61 60 60 50 49 62 67 67 66 58 57 54 54 50 52 52 50 44 49 55 57 55 57 56 58 58 57 58 59 59 55 55
61 61 61 61 61 62 62 62 61 61 61 61 60 60 60 56 48 52 65 67 66 64 58 58 57 55 49 50 50 49 46 53 54 56 56 55 54 57 55 52 59 59 60 54 53
60 60 60 60 60 61 61 61 61 61 61 61 60 59 59 48 44 52 65 66 66 58 56 55 55 50 47 45 50 45 50 52 54 55 53 52 54 54 52 62 62 62 59 53 53
58 58 58 59 59 59 59 60 60 61 61 61 60 59 48 41 46 55 63 62 56 55 54 52 50 49 45 47 48 45 48 52 52 51 51 51 51 52 51 59 59 58 55 54 55
57 57 57 57 58 58 58 59 60 60 61 61 59 58 43 38 51 54 54 53 52 52 51 52 51 52 49 48 47 48 49 49 50 51 50 49 49 49 55 60 57 55 55 55 55
55 55 56 56 56 57 58 58 59 59 60 60 59 52 41 47 51 50 53 50 51 51 50 52 53 51 50 47 50 48 45 46 48 50 48 47 44 44 57 59 56 56 57 55 55
55 55 55 55 55 56 56 57 58 59 59 58 59 46 42 50 48 49 50 47 49 51 50 52 53 51 48 50 48 44 42 38 48 47 47 49 45 53 56 52 52 52 51 50 53
55 55 55 55 55 55 56 56 57 59 59 59 45 41 41 54 47 49 49 48 48 48 49 57 50 45 45 41 38 38 35 36 43 48 44 44 41 52 52 48 49 49 49 49 52
54 54 54 54 54 55 55 56 57 56 54 54 51 39 45 46 47 48 45 49 45 45 44 43 40 37 36 37 33 33 33 35 37 43 40 39 39 46 52 49 50 52 52 51 50
54 54 54 54 54 56 52 45 45 42 43 43 45 43 46 48 49 46 48 48 45 40 35 37 33 29 34 43 37 36 34 35 38 43 40 38 41 46 52 48 46 51 55 56 55
54 54 54 54 54 53 47 44 41 42 32 44 46 48 52 49 44 45 49 44 40 36 36 33 31 38 36 36 37 35 33 34 37 41 40 38 40 46 49 51 53 55 56 58 60
53 53 53 53 53 45 42 41 48 46 33 39 42 43 44 48 44 45 47 42 38 34 34 35 37 37 38 33 34 33 34 32 35 37 36 34 39 46 45 48 51 55 57 57 58
52 52 52 53 43 40 40 46 47 46 30 35 38 40 42 43 38 44 48 44 37 37 33 35 37 35 33 34 36 33 34 35 34 33 27 31 29 41 45 51 46 49 52 53 54
52 52 52 52 40 36 41 44 44 42 12 36 36 44 40 38 37 37 44 41 36 34 36 34 31 33 33 34 38 34 34 33 33 29 26 25 27 36 39 42 47 50 50 50 49
51 51 51 43 39 40 42 41 40 28 17 29 35 33 34 35 36 37 39 41 40 36 35 33 33 34 35 34 36 34 32 31 27 27 16 26 29 42 42 43 44 46 48 49 49
51 51 47 44 34 41 40 33 25 19 29 24 25 32 32 32 32 33 32 31 29 24 26 31 32 32 35 32 33 33 30 19 15 12 20 23 26 43 44 45 45 47 47 47 47
50 49 43 41 40 38 34 24 15 12 18 33 31 33 28 31 31 31 29 24 32 28 21 24 22 31 34 35 32 30 31 23 15 16 23 25 24 36 40 43 43 43 45 45 46
48 35 33 37 40 37 28 14 9 22 24 23 27 25 18 30 30 27 25 23 30 30 25 19 25 30 33 33 37 30 26 32 23 13 18 26 30 37 42 42 43 44 43 45 45
32 29 30 38 39 35 17 19 21 28 25 25 19 25 19 22 21 23 24 29 31 34 29 30 23 28 30 33 31 32 33 26 21 13 12 27 27 34 43 44 43 42 41 43 45
30 24 32 38 34 20 5 8 23 30 29 22 20 19 22 21 24 23 23 29 32 30 34 28 30 22 27 23 27 28 26 24 25 24 20 17 28 35 36 38 38 37 38 39 40
28 13 33 35 15 -1 5 21 30 27 30 27 26 24 20 21 19 23 24 29 35 30 27 30 26 23 20 24 27 29 33 28 21 19 19 22 26 37 37 38 37 36 38 38 38
25 19 31 30 6 5 12 18 24 25 25 26 23 25 25 21 14 20 20 28 31 27 30 28 25 12 22 24 24 18 26 30 28 26 18 21 29 37 36 35 33 32 33 34 34
26 13 18 18 19 19 12 13 16 27 24 27 25 26 23 20 25 19 20 26 30 30 34 30 27 23 23 26 20 17 20 28 31 24 31 28 32 33 34 33 29 29 30 31 31
18 15 16 12 16 8 14 19 18 18 23 27 22 23 20 12 18 18 22 23 27 31 30 26 19 28 28 29 25 21 20 24 25 32 29 37 34 37 36 31 28 29 29 28 28
21 20 25 16 12 15 11 14 18 20 17 17 15 21 22 16 18 15 20 20 18 24 24 23 18 23 24 31 31 28 29 24 29 31 33 35 35 38 33 30 28 27 27 26 26
23 26 23 21 12 14 12 19 21 24 24 23 21 20 19 23 23 25 26 26 25 21 19 18 21 16 14 25 27 23 29 22 28 32 34 28 35 33 30 26 25 26 26 26 26
MSLP
1020.04 1019.85 1019.48 1019.04 1018.77 1018.36 1018.07 1017.64 1017.28 1017.03 1016.75 1016.62 1016.08 1015.99 1015.77 1015.27 1014.96 1014.68 1014.36 1012.60 1012.69 1012.53 1012.73 1012.91 1013.00 1013.23 1013.40 1013.67 1013.65 1013.81 1013.86 1012.66 1011.35 1010.89 1009.94 1009.86 1010.00 1009.49 1009.27 1009.53 1009.63 1009.46 1009.34 1009.74 1010.14
1020.02 1019.82 1019.48 1019.08 1018.76 1018.48 1017.99 1017.55 1017.14 1016.76 1016.60 1016.46 1016.04 1016.05 1015.66 1015.03 1014.83 1013.66 1012.13 1012.00 1012.35 1012.52 1012.86 1012.87 1013.33 1013.45 1013.58 1013.75 1013.79 1013.70 1013.14 1011.93 1010.53 1010.07 1009.77 1009.61 1009.67 1009.48 1009.63 1009.50 1009.42 1009.29 1009.49 1010.08 1010.67
1019.95 1019.63 1019.34 1019.00 1018.64 1018.25 1017.87 1017.47 1017.13 1016.70 1016.55 1016.32 1016.01 1015.98 1015.44 1015.07 1014.54 1012.05 1011.51 1011.87 1012.47 1012.68 1012.85 1012.81 1012.96 1013.14 1013.62 1013.44 1013.41 1013.03 1012.19 1011.04 1010.24 1009.81 1009.77 1009.67 1009.67 1009.43 1009.38 1009.23 1008.44 1008.57 1008.77 1009.86 1010.65
1020.43 1020.03 1019.70 1019.36 1018.85 1018.25 1017.94 1017.38 1016.80 1016.43 1016.16 1015.82 1015.85 1015.86 1015.19 1015.02 1013.86 1011.49 1011.51 1011.96 1012.34 1012.79 1013.13 1012.91 1013.07 1013.27 1013.38 1013.12 1012.42 1012.65 1011.51 1010.93 1010.26 1010.09 1010.10 1010.00 1009.49 1009.33 1008.94 1007.50 1007.35 1007.66 1008.35 1009.26 1009.81
1020.83 1020.45 1020.05 1019.64 1018.92 1018.30 1017.76 1017.16 1016.54 1016.07 1015.48 1015.34 1015.27 1015.18 1015.15 1014.87 1013.04 1011.69 1011.60 1011.91 1012.61 1012.89 1013.02 1012.90 1012.90 1012.87 1012.76 1012.61 1012.29 1012.03 1011.11 1010.88 1010.26 1010.33 1010.29 1010.17 1009.70 1009.14 1008.67 1006.90 1007.58 1007.82 1008.08 1008.37 1008.92
1021.07 1020.71 1020.18 1019.59 1018.88 1018.32 1017.72 1017.02 1016.12 1015.32 1014.66 1014.46 1014.79 1014.92 1015.14 1014.53 1011.60 1011.66 1011.94 1012.29 1012.74 1012.85 1012.96 1012.71 1012.26 1012.14 1012.12 1011.91 1011.90 1011.23 1010.92 1010.63 1010.31 1009.99 1010.06 1009.94 1009.32 1009.28 1007.61 1006.38 1006.95 1007.33 1007.32 1007.48 1007.84
1021.45 1021.09 1020.35 1019.55 1018.90 1018.26 1017.47 1016.66 1015.83 1015.10 1014.53 1014.34 1014.61 1014.99 1014.81 1012.14 1011.39 1011.55 1011.90 1012.48 1012.44 1012.54 1012.82 1012.37 1011.97 1012.14 1011.92 1011.67 1011.14 1011.03 1011.10 1010.48 1009.77 1009.39 1009.69 1009.60 1009.00 1008.22 1006.08 1006.24 1006.50 1006.24 1006.29 1006.71 1006.74
1021.81 1021.22 1020.42 1019.79 1019.09 1018.27 1017.34 1016.24 1015.40 1014.74 1014.43 1014.46 1014.57 1014.87 1013.62 1011.55 1011.60 1011.76 1012.04 1012.38 1012.43 1012.33 1012.26 1012.11 1012.07 1012.10 1011.86 1011.55 1011.34 1011.37 1011.26 1010.80 1009.01 1009.07 1009.33 1009.38 1006.75 1006.09 1005.61 1006.10 1005.93 1005.79 1005.74 1006.15 1005.98
1021.69 1021.01 1020.33 1019.74 1018.96 1017.97 1016.88 1015.55 1014.77 1014.26 1014.28 1014.47 1014.99 1014.91 1012.76 1011.54 1011.73 1011.46 1011.67 1011.88 1012.18 1012.34 1012.26 1012.18 1012.17 1012.36 1012.15 1012.13 1012.38 1011.81 1011.15 1010.29 1009.58 1008.95 1009.25 1009.04 1007.06 1005.72 1005.72 1005.91 1005.68 1005.70 1005.38 1005.12 1005.07
1021.76 1021.11 1020.48 1019.70 1018.80 1017.63 1016.19 1014.79 1014.30 1014.48 1014.67 1014.79 1014.93 1015.21 1012.32 1011.17 1011.06 1011.19 1011.49 1011.79 1012.08 1012.38 1012.70 1012.59 1012.64 1012.58 1012.70 1012.56 1011.30 1011.06 1011.03 1010.21 1009.63 1009.19 1009.31 1008.92 1007.15 1006.06 1005.46 1005.56 1005.23 1004.87 1004.55 1004.39 1004.09
1021.74 1021.18 1020.51 1019.79 1018.58 1017.12 1015.79 1014.89 1015.15 1015.37 1015.17 1013.99 1013.22 1012.29 1011.26 1010.72 1010.83 1011.14 1011.13 1011.62 1012.01 1012.60 1012.65 1012.73 1012.90 1012.32 1011.80 1010.79 1010.88 1010.49 1010.43 1010.04 1009.54 1009.07 1009.18 1008.35 1006.40 1005.49 1004.61 1004.44 1004.08 1003.61 1002.80 1002.59 1002.21
1021.84 1021.16 1020.42 1019.65 1018.74 1018.05 1017.00 1017.35 1019.23 1019.26 1016.12 1013.46 1012.05 1010.96 1010.07 1009.88 1010.41 1010.70 1010.93 1011.45 1011.88 1012.14 1012.60 1013.22 1011.59 1010.92 1011.13 1011.35 1011.18 1011.06 1011.05 1010.23 1009.97 1009.45 1009.44 1008.23 1004.88 1004.36 1003.83 1002.13 1002.01 1001.50 1001.11 1000.69 1000.26
1022.11 1021.38 1020.61 1019.79 1018.97 1018.83 1019.11 1019.34 1019.24 1018.85 1017.16 1011.80 1010.28 1009.20 1008.89 1009.17 1008.81 1008.74 1009.92 1010.14 1010.52 1011.47 1011.52 1011.34 1009.90 1010.01 1010.87 1011.17 1011.47 1010.99 1010.82 1010.61 1010.45 1010.04 1009.43 1008.80 1004.33 1002.62 1001.12 1000.38 1000.31 999.95 999.69 999.50 999.05
1022.39 1021.64 1020.91 1020.08 1019.74 1019.92 1019.38 1018.95 1018.76 1018.53 1017.10 1011.16 1009.34 1007.77 1008.07 1008.17 1008.64 1007.93 1008.21 1008.85 1009.99 1009.75 1010.94 1010.89 1009.57 1010.13 1010.67 1010.44 1010.80 1010.76 1010.19 1010.61 1010.93 1011.26 1010.53 1009.37 1004.80 1001.28 1000.60 999.69 999.30 998.97 998.48 998.07 998.36
1022.53 1021.86 1021.19 1020.64 1020.78 1020.31 1019.70 1018.89 1018.53 1018.28 1016.40 1009.58 1008.57 1007.82 1007.86 1008.22 1008.12 1008.19 1008.27 1008.34 1008.59 1009.31 1010.10 1008.36 1009.15 1009.61 1009.67 1008.92 1010.05 1009.74 1009.99 1010.74 1011.18 1011.42 1011.08 1009.75 1008.50 999.70 1000.09 999.65 998.91 997.84 997.61 997.92 997.91
1022.73 1022.05 1021.19 1021.15 1021.36 1020.39 1019.77 1019.00 1018.59 1018.50 1014.00 1009.78 1008.57 1008.53 1008.75 1008.49 1008.34 1008.38 1008.47 1008.42 1008.43 1009.17 1009.25 1008.68 1008.72 1008.78 1008.51 1008.96 1009.11 1009.97 1010.57 1011.45 1012.00 1012.19 1011.56 1008.68 1007.81 996.41 999.52 998.78 997.93 997.52 997.61 997.62 997.80
1022.68 1021.87 1021.28 1021.22 1021.41 1020.77 1020.13 1019.80 1019.33 1017.02 1012.65 1011.39 1010.66 1010.15 1009.55 1008.87 1008.59 1008.46 1008.59 1008.52 1008.39 1009.36 1008.91 1008.86 1008.42 1008.27 1008.30 1009.18 1009.63 1009.64 1010.49 1012.09 1012.71 1013.02 1010.10 1008.40 1007.17 998.85 998.92 998.50 998.10 998.03 998.14 997.95 997.78
1022.87 1021.94 1021.61 1021.70 1021.34 1020.85 1020.86 1020.90 1019.19 1016.73 1015.69 1013.18 1012.63 1011.61 1010.74 1009.68 1009.24 1008.99 1008.99 1008.96 1008.41 1008.43 1008.49 1008.57 1008.28 1007.70 1007.35 1006.92 1007.75 1009.09 1008.90 1009.46 1010.01 1010.66 1009.52 1008.62 1004.97 999.88 998.63 998.08 997.77 998.18 998.49 998.22 998.00
1023.07 1022.50 1022.37 1022.01 1021.54 1021.36 1021.67 1021.85 1020.07 1018.76 1018.56 1017.26 1014.60 1012.64 1011.51 1010.15 1009.96 1009.61 1009.39 1008.78 1007.56 1007.60 1007.87 1007.85 1007.68 1007.24 1007.25 1006.97 1006.56 1008.55 1008.36 1007.63 1008.58 1009.63 1009.05 1006.23 1002.59 1000.32 998.61 998.21 997.91 998.19 998.24 998.24 998.37
1023.96 1023.65 1022.87 1022.04 1021.45 1021.82 1022.57 1022.49 1021.42 1020.42 1019.57 1018.60 1017.14 1015.58 1014.40 1012.63 1012.82 1011.06 1009.19 1007.52 1007.28 1006.41 1006.51 1006.44 1007.21 1007.45 1007.46 1007.46 1007.20 1006.62 1007.12 1007.78 1008.80 1008.82 1008.02 1004.94 1002.74 1000.67 999.24 998.61 998.87 999.01 999.29 999.50 999.31
1024.66 1024.37 1022.60 1021.93 1021.63 1022.84 1024.18 1023.58 1022.15 1020.80 1020.15 1019.47 1018.11 1017.01 1015.93 1014.68 1013.56 1012.46 1010.75 1008.59 1008.08 1007.58 1006.86 1006.42 1006.63 1008.09 1008.06 1007.56 1006.74 1007.04 1006.89 1007.09 1007.01 1006.97 1005.83 1004.82 1001.82 999.82 999.67 1000.04 1000.59 1001.04 1000.80 1000.65 1000.71
1025.46 1025.30 1022.94 1022.34 1023.24 1024.96 1024.82 1023.79 1022.60 1020.99 1020.00 1019.48 1018.64 1017.86 1017.02 1015.98 1014.73 1013.49 1012.25 1011.23 1009.99 1009.74 1008.44 1007.11 1006.45 1006.83 1006.70 1006.59 1006.53 1006.07 1005.28 1005.34 1005.50 1005.86 1005.30 1004.24 1001.55 1000.48 1000.33 1000.86 1001.52 1002.42 1002.59 1002.66 1002.54
1026.00 1025.53 1023.68 1023.48 1025.13 1026.14 1025.23 1024.12 1022.78 1021.25 1020.27 1019.58 1019.22 1018.52 1018.02 1017.31 1016.35 1014.42 1013.65 1012.61 1011.32 1010.54 1008.44 1007.76 1006.61 1006.50 1006.41 1006.79 1006.81 1006.70 1005.77 1004.97 1004.63 1004.43 1003.84 1003.58 1001.61 1000.97 1001.11 1001.83 1002.91 1003.51 1004.18 1004.38 1004.48
1026.42 1026.53 1025.56 1025.47 1026.08 1026.39 1026.17 1024.41 1022.69 1021.41 1020.37 1019.63 1019.21 1018.61 1018.34 1017.50 1016.92 1015.75 1014.63 1012.94 1012.29 1011.36 1010.37 1008.90 1006.72 1006.07 1005.21 1004.33 1005.06 1006.13 1005.21 1004.61 1003.95 1003.52 1002.31 1001.65 1001.49 1001.82 1002.11 1003.04 1004.04 1004.66 1005.01 1005.26 1005.56
1026.95 1027.09 1026.86 1026.81 1026.51 1026.69 1026.23 1024.68 1022.93 1021.67 1020.62 1019.99 1019.47 1018.85 1018.87 1018.01 1016.75 1015.94 1015.21 1013.58 1012.13 1011.06 1011.00 1011.02 1008.48 1006.02 1005.03 1004.72 1004.44 1004.52 1004.21 1003.85 1003.68 1002.08 1001.74 1000.45 1000.80 1001.23 1002.30 1003.76 1005.33 1005.96 1006.03 1005.93 1006.22
1027.40 1027.42 1026.86 1026.89 1026.53 1026.20 1025.57 1024.19 1022.82 1021.74 1021.43 1020.43 1020.13 1019.41 1018.90 1018.56 1017.68 1016.54 1016.03 1015.30 1014.15 1011.53 1011.27 1010.65 1009.55 1007.73 1005.08 1003.89 1003.64 1003.76 1003.79 1003.90 1003.13 1002.53 1002.08 1001.21 1001.02 1001.91 1003.73 1004.79 1005.97 1006.86 1007.43 1007.63 1007.72
1026.75 1026.73 1026.88 1026.46 1026.32 1026.19 1025.05 1023.71 1022.32 1021.88 1020.56 1020.11 1019.89 1019.42 1018.58 1017.81 1017.32 1016.83 1016.30 1015.22 1014.52 1013.52 1012.10 1011.83 1010.00 1008.60 1006.42 1005.29 1004.12 1003.60 1003.23 1003.41 1002.91 1002.49 1002.55 1002.83 1002.34 1003.52 1004.82 1005.93 1007.13 1007.93 1008.57 1008.86 1008.91
Wind_Speed
16 16 17 17 18 18 18 17 17 16 15 15 15 14 14 12 10 2 7 10 6 10 4 4 3 3 3 2 3 2 2 9 16 11 12 4 5 3 1 3 3 7 4 2 6
18 18 19 19 18 18 18 19 18 16 16 15 14 14 14 12 3 8 6 6 8 10 4 6 4 5 3 3 3 5 5 11 6 7 6 5 6 4 2 4 5 4 2 4 8
16 17 20 21 22 21 20 19 18 17 16 14 13 12 11 8 4 6 4 10 8 6 2 4 5 4 4 4 6 6 8 8 6 6 5 4 4 4 5 6 11 9 8 8 9
21 20 21 23 23 21 21 22 21 18 18 14 11 10 8 2 8 2 6 8 8 5 4 5 4 5 5 7 6 5 11 6 4 4 4 5 2 5 8 17 6 12 4 8 15
24 23 22 22 23 24 24 24 23 22 20 14 7 5 2 0 11 4 5 5 6 5 7 7 5 6 6 5 5 5 4 5 5 8 8 3 10 8 6 22 6 4 7 12 14
25 25 24 24 25 26 26 25 26 24 19 9 4 1 3 5 2 6 6 6 5 4 5 6 7 6 4 5 7 3 5 6 7 8 7 8 8 8 12 10 13 11 16 13 16
25 25 26 27 28 28 28 29 27 24 15 4 4 3 2 17 4 4 7 5 5 5 5 4 3 4 3 3 3 2 6 6 9 6 9 6 8 12 26 12 14 15 17 13 17
25 25 26 28 29 29 31 31 28 20 7 1 6 3 9 1 3 3 4 2 2 4 2 1 2 4 3 4 5 3 1 4 3 6 4 9 14 12 13 7 15 11 9 9 14
25 26 27 28 30 31 32 32 27 6 2 6 2 2 10 4 3 5 5 5 4 1 2 1 4 4 1 4 4 3 7 9 7 9 4 8 5 8 2 4 10 8 10 9 12
26 27 29 31 32 32 30 27 9 2 3 2 1 2 5 6 4 4 3 6 3 5 3 3 2 3 1 5 14 10 7 5 6 2 2 6 18 17 15 10 15 15 14 12 12
26 27 28 30 33 26 15 5 7 3 1 9 6 7 6 2 4 5 4 7 5 2 8 4 4 12 15 21 1 4 4 5 3 2 3 9 21 17 17 10 12 17 18 18 17
27 28 29 28 32 22 10 6 5 6 16 15 24 23 18 7 6 8 9 9 8 9 7 3 18 16 7 5 7 6 5 11 6 4 4 8 27 18 16 23 20 21 21 22 21
27 29 29 31 21 9 7 6 9 7 8 9 11 11 8 16 16 15 18 6 8 10 14 14 8 7 13 7 11 10 18 6 9 5 4 6 25 15 10 13 13 17 21 19 22
28 29 28 29 6 7 4 8 12 6 7 10 7 9 5 7 7 3 12 9 6 17 10 12 6 8 7 11 10 16 10 8 6 3 6 1 18 8 5 15 8 11 15 18 14
27 26 25 18 5 4 6 10 12 2 6 10 5 1 3 5 5 1 3 2 8 9 9 12 11 9 11 10 14 7 6 8 4 4 3 3 4 5 3 6 9 14 13 10 9
26 27 29 6 4 6 7 8 2 4 15 9 2 2 4 2 1 2 4 1 3 5 4 5 1 6 8 3 7 9 8 7 5 3 4 11 9 32 8 9 6 3 3 2 1
28 31 18 5 4 8 6 5 5 10 6 10 5 3 4 5 4 6 7 8 8 7 12 3 7 4 4 7 3 3 8 0 3 1 11 2 6 22 13 11 7 9 7 7 7
28 27 12 3 6 4 4 4 10 4 7 10 11 8 6 3 4 5 5 5 10 2 3 9 7 13 9 9 11 8 9 9 11 7 4 3 14 10 9 11 10 7 9 7 7
23 5 5 3 4 3 4 1 5 8 9 19 22 8 7 5 5 5 7 5 8 14 12 7 7 0 2 1 9 8 10 5 7 2 3 7 9 9 13 14 9 6 5 6 3
3 4 4 6 4 3 4 6 7 18 14 11 7 9 11 13 14 6 9 5 6 17 3 5 3 0 1 1 1 6 4 4 2 3 5 8 7 8 12 7 6 10 8 7 7
4 5 4 8 4 6 3 5 10 14 14 6 12 7 13 15 10 7 7 7 9 10 11 3 5 1 2 8 10 5 5 2 4 6 8 3 7 6 3 3 8 8 10 11 10
3 4 4 5 6 1 0 6 14 9 5 6 7 11 11 16 7 7 10 12 16 11 5 7 2 8 12 2 2 4 8 8 7 7 3 3 8 5 5 8 11 10 12 13 14
5 4 3 5 3 4 7 6 6 10 10 10 7 3 5 10 9 15 18 22 24 13 7 5 5 2 1 2 3 4 5 4 5 4 7 7 7 5 6 9 10 11 11 11 13
3 4 6 5 0 3 3 7 8 5 10 6 10 4 7 12 9 9 19 11 21 21 19 21 6 6 15 10 7 6 9 15 15 6 13 8 4 3 5 7 7 9 10 11 12
3 3 3 5 7 1 2 6 14 11 3 5 9 7 11 7 12 7 14 16 15 7 12 10 10 12 20 20 3 5 7 14 16 24 17 23 14 9 7 7 6 6 9 12 15
1 3 1 4 3 4 4 5 11 9 3 15 5 12 15 12 11 17 16 11 7 17 13 2 7 16 16 16 17 21 12 11 21 20 20 20 13 5 10 12 11 11 10 11 12
3 3 2 5 3 1 5 8 19 17 12 6 9 12 16 19 6 12 14 17 16 17 14 5 6 10 5 13 15 13 12 10 8 6 13 18 14 3 7 11 11 10 10 10 11
Wind_Direction
21 13 8 4 358 354 349 344 338 330 323 318 322 321 319 318 316 202 231 225 198 173 120 117 76 105 78 159 171 123 189 236 239 209 235 177 193 184 146 238 215 206 214 7 119
15 9 4 1 355 349 345 345 338 333 325 317 316 314 317 322 275 226 238 190 160 152 127 158 164 141 129 188 206 171 197 227 213 229 227 196 198 197 193 209 247 249 193 93 149
2 3 2 1 352 347 344 342 337 330 319 313 312 309 318 326 311 244 163 168 168 165 151 156 120 135 182 158 200 196 221 230 253 224 203 207 223 205 196 230 220 213 205 167 177
19 14 9 359 351 348 343 339 334 328 320 307 300 301 314 317 275 169 145 168 172 145 134 139 139 160 202 203 197 203 243 220 268 249 181 231 180 238 197 241 199 224 148 165 186
14 8 3 354 351 347 341 337 334 327 321 300 290 303 338 338 252 177 134 145 110 145 185 174 164 164 190 209 179 218 255 238 248 248 232 307 247 230 251 257 223 225 184 194 203
10 3 358 353 349 344 338 333 331 326 326 309 280 220 126 250 189 150 139 130 170 166 200 172 206 208 222 218 182 225 245 255 266 247 224 206 244 149 248 263 224 216 227 210 204
7 360 355 351 345 341 334 328 326 325 321 296 210 153 193 238 142 149 152 199 184 180 189 227 215 187 174 261 247 246 293 291 226 220 230 168 258 224 237 251 239 229 235 218 215
359 355 353 348 342 337 331 321 319 315 315 208 167 137 246 193 145 173 163 182 198 211 227 258 191 215 206 299 334 274 179 294 288 145 229 155 258 247 242 210 246 246 238 223 227
359 356 353 347 341 335 325 315 316 285 237 154 85 169 263 127 200 201 163 178 150 149 230 57 135 209 148 140 329 260 245 215 310 198 134 190 255 257 93 214 268 269 263 239 238
356 354 350 346 339 331 320 307 292 69 58 87 8 318 265 240 182 167 163 149 152 128 88 153 71 171 147 146 225 203 234 236 223 185 192 265 260 271 269 262 263 266 263 250 240
353 350 348 345 340 341 341 356 13 339 284 218 195 251 276 169 120 203 176 129 120 127 180 213 168 205 200 210 247 147 217 231 236 170 241 237 263 261 266 257 245 255 255 254 243
353 350 347 347 341 12 351 47 34 287 292 239 252 256 247 170 237 208 143 159 165 194 135 107 233 219 196 217 233 244 270 257 277 258 202 294 277 270 259 257 241 246 251 247 247
359 359 354 348 338 2 340 56 339 326 258 246 213 234 220 180 233 213 167 160 174 173 191 198 210 170 186 180 203 232 234 224 239 331 256 321 278 268 242 258 250 248 246 252 243
356 354 351 349 38 346 332 330 341 308 286 275 227 260 144 150 235 170 182 151 211 208 156 237 196 143 179 211 169 240 196 180 188 124 245 67 284 214 220 252 222 238 238 245 245
357 351 343 345 283 305 269 316 323 200 285 259 208 47 145 183 131 132 176 76 185 174 144 226 172 181 195 198 180 232 139 164 149 171 16 199 260 258 64 270 264 240 244 257 247
354 343 331 340 304 288 327 316 295 223 244 273 133 120 113 242 218 123 164 203 153 147 253 242 138 178 197 85 163 150 85 60 56 104 281 180 166 278 217 219 259 249 189 214 229
349 340 343 346 283 337 329 7 223 213 331 306 350 359 311 223 220 182 170 183 169 150 225 127 210 178 155 99 60 149 123 344 339 3 236 217 189 251 307 273 229 258 278 283 298
343 337 330 336 307 309 17 42 232 262 297 354 1 299 229 168 253 188 154 205 243 112 115 180 275 168 179 191 165 198 174 170 194 191 227 103 236 249 231 280 258 248 260 287 309
339 338 334 301 330 5 57 264 243 343 7 343 326 301 293 267 221 159 209 230 219 181 183 155 262 147 329 179 150 189 220 141 99 54 49 219 275 272 270 272 308 329 282 256 250
332 342 286 307 252 57 66 307 324 333 331 329 313 309 343 332 327 311 180 213 230 193 165 235 278 210 129 259 301 159 177 106 6 167 227 262 281 237 296 303 359 7 6 335 16
32 359 264 312 61 52 115 242 309 314 337 324 306 290 298 332 329 328 297 324 353 350 214 180 174 92 81 216 186 148 181 212 143 169 181 240 259 222 291 41 53 14 32 32 35
28 357 325 11 35 323 262 296 305 305 281 286 284 330 4 330 301 277 271 305 344 327 276 243 198 211 203 254 350 329 209 166 143 227 238 154 264 4 53 103 70 34 35 35 38
344 268 328 66 65 316 309 303 256 311 316 315 296 294 327 328 320 334 4 332 344 342 329 325 245 241 66 4 17 213 215 231 95 104 202 149 262 354 82 71 44 55 34 33 30
8 343 319 32 8 301 316 297 302 299 280 316 294 306 327 317 321 299 342 334 329 319 336 337 213 245 241 218 138 188 201 204 202 208 220 210 143 271 55 70 41 40 39 34 35
31 272 207 307 317 217 285 269 296 325 292 344 309 311 340 298 315 348 324 320 326 332 334 1 292 270 236 260 177 205 213 202 207 222 215 230 214 217 156 108 75 58 44 38 25
15 327 288 273 268 315 305 278 296 303 78 309 281 311 327 296 275 298 317 316 272 307 330 347 297 301 302 264 247 248 227 201 209 227 240 257 254 99 88 84 54 41 42 49 39
270 254 255 294 307 316 253 281 299 302 290 243 271 302 297 289 292 290 282 278 269 275 287 276 297 333 268 342 293 252 231 192 197 211 223 238 254 2 62 61 55 56 44 42 40